User: anonymous   Login
Location: The D'Auria's Ocala Star Observatory
(29.0276°N, 82.1742°W)
Time: 22:42:25
(UTC-05:00)
Language:

Okean 3 Rocket - Orbit

View from above orbital plane
View from above orbital plane
View from above satellite
View from above satellite

Ground track
Ground track

The orbit data is extracted from the following two-line orbital elements,

1 21398U 91039B   17021.47075167  .00000084  00000-0  81672-5 0  9994
2 21398  82.5228   2.7579 0020199 306.2741 175.9209 14.79646457382218
Epoch (UTC): 21 January 2017 11:17:52
Eccentricity: 0.0020199
inclination: 82.5228°
perigee height: 616 km
apogee height: 644 km
right ascension of ascending node: 2.7579°
argument of perigee: 306.2741°
revolutions per day: 14.79646457
mean anomaly at epoch: 175.9209°
orbit number at epoch: 38221

The dashed part of the orbit path shows where the satellite is in the earth's shadow,  

DLR